Glencoe, MN

12:19 PM CST on December 11, 2017 (GMT -0600)
Glencoe Municipal

Weather History for KGYL - February, 2014

Change the Weather History Date:

Sunday, February 23, 2014

  Actual Average (KHCD) Record (KHCD)
Temperature  
Mean Temperature 8 °F -  
Max Temperature 17 °F 32 °F 55 °F (2002)
Min Temperature -2 °F 13 °F -14 °F (2001)
Degree Days  
Heating Degree Days 58    
Moisture  
Dew Point -1 °F    
Average Humidity 70    
Maximum Humidity 79    
Minimum Humidity 62    
Precipitation  
Precipitation 0.00 in - - ()
Sea Level Pressure  
Sea Level Pressure 30.23 in    
Wind  
Wind Speed 10 mph (West)    
Max Wind Speed 21 mph    
Max Gust Speed 25 mph    
Visibility 10 miles    
Events      
Averages and records for this station are not official NWS values.
T = Trace of Precipitation, MM = Missing Value Source: NWS Daily Summary

Daily Weather History Graph

Daily Weather History Graph

Search for Another Location

Airport or City:

Trip Planner

Search our weather history database for the weather conditions in past years. The results will help you decide how hot, cold, wet, or windy it might be!

Date:

Astronomy

Feb. 23, 2014 Rise Set
Actual Time 7:04 AM CST 5:55 PM CST
Civil Twilight 6:34 AM CST 6:25 PM CST
Nautical Twilight 6:00 AM CST 6:59 PM CST
Astronomical Twilight 5:26 AM CST 7:33 PM CST
Moon 2:10 AM CST (2/23) 11:51 AM CST (2/23)
Length of Visible Light 11h 51m
Length of Day
10h 51m
Last Quarter, 38% of the Moon is Illuminated
Feb 23
Last Quarter
Mar 1
New
Mar 8
First Quarter
Mar 16
Full
Mar 23
Last Quarter

Hourly Weather History & Observations

Time (CST) Temp. Windchill Dew Point Humidity Pressure Visibility Wind Dir Wind Speed Gust Speed Precip Events Conditions
12:13 AM 6.4 °F -8.2 °F -0.9 °F 72% 30.16 in 10.0 mi West 10.4 mph - N/A   Clear
12:32 AM 5.9 °F -8.9 °F -1.5 °F 72% 30.17 in 10.0 mi West 10.4 mph - N/A   Clear
12:53 AM 5.2 °F -7.9 °F -2.2 °F 72% 30.17 in 10.0 mi West 8.1 mph - N/A   Clear
1:13 AM 4.1 °F -6.7 °F -2.9 °F 73% 30.17 in 10.0 mi West 5.8 mph - N/A   Clear
1:33 AM 2.3 °F -7.2 °F -4.0 °F 75% 30.17 in 10.0 mi WSW 4.6 mph - N/A   Clear
1:52 AM 1.2 °F -10.1 °F -4.5 °F 77% 30.17 in 10.0 mi WSW 5.8 mph - N/A   Clear
2:13 AM 0.9 °F -10.5 °F -4.9 °F 77% 30.18 in 10.0 mi WSW 5.8 mph - N/A   Clear
2:33 AM -0.2 °F -11.8 °F -6.0 °F 77% 30.18 in 10.0 mi West 5.8 mph - N/A   Clear
2:53 AM -0.8 °F -12.5 °F -6.3 °F 77% 30.18 in 10.0 mi WSW 5.8 mph - N/A   Clear
3:12 AM 0.5 °F -11.0 °F -5.6 °F 75% 30.18 in 10.0 mi WSW 5.8 mph - N/A   Clear
3:33 AM 1.4 °F -11.3 °F -5.3 °F 74% 30.18 in 10.0 mi WSW 6.9 mph - N/A   Clear
3:52 AM 0.7 °F -10.7 °F -5.6 °F 75% 30.18 in 10.0 mi West 5.8 mph - N/A   Clear
4:13 AM 1.0 °F -12.9 °F -5.3 °F 75% 30.18 in 10.0 mi West 8.1 mph - N/A   Clear
4:33 AM 2.1 °F -10.4 °F -4.4 °F 74% 30.18 in 10.0 mi West 6.9 mph - N/A   Clear
4:52 AM 2.1 °F -12.6 °F -4.5 °F 74% 30.18 in 10.0 mi West 9.2 mph - N/A   Clear
5:13 AM 1.0 °F -12.9 °F -5.4 °F 74% 30.18 in 10.0 mi West 8.1 mph - N/A   Clear
5:32 AM 0.9 °F -11.9 °F -5.3 °F 75% 30.18 in 10.0 mi West 6.9 mph - N/A   Clear
5:53 AM -0.4 °F -10.4 °F -6.2 °F 77% 30.19 in 10.0 mi West 4.6 mph - N/A   Clear
6:12 AM -2.4 °F -12.7 °F -8.0 °F 77% 30.19 in 10.0 mi WSW 4.6 mph - N/A   Clear
6:33 AM -2.7 °F -14.8 °F -8.1 °F 78% 30.19 in 10.0 mi West 5.8 mph - N/A   Clear
6:52 AM -1.1 °F -14.3 °F -6.2 °F 79% 30.19 in 10.0 mi West 6.9 mph - N/A   Clear
7:13 AM -0.0 °F -14.2 °F -5.3 °F 79% 30.20 in 10.0 mi West 8.1 mph - N/A   Clear
7:33 AM 0.3 °F -12.6 °F -5.1 °F 78% 30.21 in 10.0 mi West 6.9 mph - N/A   Clear
7:53 AM -1.3 °F -13.1 °F -6.5 °F 79% 30.22 in 10.0 mi West 5.8 mph - N/A   Clear
8:13 AM -0.2 °F -10.1 °F -5.8 °F 77% 30.23 in 10.0 mi WSW 4.6 mph - N/A   Clear
8:32 AM 0.7 °F -12.1 °F -5.6 °F 75% 30.23 in 10.0 mi West 6.9 mph - N/A   Clear
8:53 AM 2.1 °F -9.0 °F -5.3 °F 71% 30.24 in 10.0 mi WSW 5.8 mph - N/A   Clear
9:12 AM 3.9 °F -8.2 °F -3.8 °F 70% 30.24 in 10.0 mi West 6.9 mph - N/A   Clear
9:33 AM 5.9 °F -10.5 °F -2.7 °F 68% 30.24 in 10.0 mi West 12.7 mph - N/A   Clear
9:53 AM 6.8 °F -10.0 °F -2.0 °F 67% 30.25 in 10.0 mi West 13.8 mph - N/A   Clear
10:13 AM 7.5 °F -9.1 °F -1.5 °F 67% 30.25 in 10.0 mi West 13.8 mph 18.4 mph N/A   Clear
10:33 AM 8.2 °F -8.2 °F -1.3 °F 65% 30.25 in 10.0 mi West 13.8 mph - N/A   Clear
10:53 AM 9.0 °F -7.9 °F -0.6 °F 65% 30.26 in 10.0 mi West 15.0 mph - N/A   Clear
11:13 AM 9.7 °F -7.0 °F -0.2 °F 64% 30.26 in 10.0 mi West 15.0 mph - N/A   Clear
11:32 AM 10.4 °F -4.1 °F 0.7 °F 65% 30.26 in 10.0 mi West 11.5 mph - N/A   Clear
11:53 AM 10.9 °F -4.7 °F 0.5 °F 63% 30.26 in 10.0 mi West 13.8 mph 18.4 mph N/A   Clear
12:12 PM 11.7 °F -5.0 °F 1.4 °F 63% 30.26 in 10.0 mi West 16.1 mph 19.6 mph N/A   Clear
12:33 PM 12.2 °F -3.1 °F 1.8 °F 63% 30.25 in 10.0 mi West 13.8 mph 17.3 mph N/A   Clear
12:53 PM 13.1 °F -3.1 °F 2.7 °F 63% 30.24 in 10.0 mi West 16.1 mph - N/A   Clear
1:12 PM 14.0 °F -3.0 °F 3.7 °F 64% 30.24 in 10.0 mi West 18.4 mph 23.0 mph N/A   Clear
1:33 PM 14.4 °F -3.4 °F 3.4 °F 62% 30.24 in 10.0 mi West 20.7 mph 24.2 mph N/A   Clear
1:53 PM 15.3 °F 0.2 °F 4.8 °F 63% 30.24 in 10.0 mi West 15.0 mph 21.9 mph N/A   Clear
2:13 PM 15.8 °F 0.3 °F 5.2 °F 63% 30.24 in 10.0 mi West 16.1 mph 21.9 mph N/A   Clear
2:33 PM 16.5 °F 0.3 °F 5.9 °F 63% 30.24 in 10.0 mi West 18.4 mph 25.3 mph N/A   Clear
2:53 PM 16.7 °F 0.1 °F 5.9 °F 63% 30.24 in 10.0 mi West 19.6 mph 24.2 mph N/A   Clear
3:13 PM 17.1 °F 1.0 °F 6.6 °F 64% 30.24 in 10.0 mi West 18.4 mph 24.2 mph N/A   Clear
3:32 PM 17.1 °F 1.5 °F 6.4 °F 63% 30.24 in 10.0 mi West 17.3 mph 23.0 mph N/A   Clear
3:53 PM 17.1 °F 1.5 °F 6.8 °F 64% 30.24 in 10.0 mi West 17.3 mph 23.0 mph N/A   Clear
4:13 PM 17.1 °F 1.0 °F 6.6 °F 64% 30.24 in 10.0 mi West 18.4 mph 25.3 mph N/A   Clear
4:32 PM 16.9 °F 1.7 °F 6.8 °F 65% 30.24 in 10.0 mi West 16.1 mph - N/A   Clear
4:53 PM 16.7 °F 1.5 °F 6.4 °F 64% 30.24 in 10.0 mi West 16.1 mph 20.7 mph N/A   Clear
5:13 PM 16.2 °F 1.3 °F 5.9 °F 64% 30.24 in 10.0 mi West 15.0 mph - N/A   Clear
5:33 PM 15.6 °F 1.8 °F 5.7 °F 65% 30.24 in 10.0 mi West 12.7 mph - N/A   Clear
5:52 PM 14.7 °F 2.1 °F 5.0 °F 65% 30.25 in 10.0 mi West 10.4 mph - N/A   Clear
6:13 PM 13.5 °F 0.5 °F 4.5 °F 67% 30.25 in 10.0 mi West 10.4 mph - N/A   Clear
6:33 PM 12.9 °F -0.2 °F 4.1 °F 68% 30.26 in 10.0 mi West 10.4 mph - N/A   Clear
6:53 PM 12.7 °F -1.1 °F 4.1 °F 68% 30.26 in 10.0 mi WNW 11.5 mph - N/A   Clear
7:13 PM 10.9 °F -0.8 °F 2.8 °F 70% 30.27 in 10.0 mi WNW 8.1 mph - N/A   Clear
7:32 PM 7.3 °F -7.9 °F 0.5 °F 74% 30.26 in 10.0 mi WNW 11.5 mph - N/A   Clear
7:53 PM 10.2 °F -4.3 °F 2.5 °F 71% 30.27 in 10.0 mi WNW 11.5 mph - N/A   Clear
8:12 PM 10.4 °F -4.1 °F 2.1 °F 69% 30.26 in 10.0 mi WNW 11.5 mph - N/A   Clear
8:33 PM 9.7 °F -4.2 °F 1.4 °F 69% 30.27 in 10.0 mi WNW 10.4 mph - N/A   Clear
8:52 PM 9.3 °F -2.8 °F 0.7 °F 68% 30.27 in 10.0 mi WNW 8.1 mph - N/A   Clear
9:13 PM 5.2 °F -6.7 °F -1.8 °F 73% 30.27 in 10.0 mi WNW 6.9 mph - N/A   Clear
9:33 PM 6.4 °F -7.3 °F -0.8 °F 72% 30.28 in 10.0 mi WNW 9.2 mph - N/A   Clear
9:53 PM 6.6 °F -7.1 °F -0.8 °F 72% 30.28 in 10.0 mi West 9.2 mph - N/A   Clear
10:13 PM 6.3 °F -7.5 °F -0.8 °F 73% 30.28 in 10.0 mi West 9.2 mph - N/A   Clear
10:32 PM 5.9 °F -8.0 °F -1.3 °F 72% 30.28 in 10.0 mi WNW 9.2 mph - N/A   Clear
10:53 PM 5.2 °F -8.9 °F -1.5 °F 74% 30.28 in 10.0 mi West 9.2 mph - N/A   Clear
11:13 PM 5.4 °F -7.6 °F -1.5 °F 73% 30.28 in 10.0 mi West 8.1 mph - N/A   Clear
11:33 PM 5.4 °F -7.6 °F -1.8 °F 72% 30.28 in 10.0 mi West 8.1 mph - N/A   Clear
11:53 PM 3.4 °F -10.0 °F -2.9 °F 75% 30.28 in 10.0 mi West 8.1 mph - N/A   Clear